This demonstration page uses our WeatherBlox Daily Observations layout. Learn more.

Left ArrowRight Arrow

36.19886, -115.1175

Hourly Observations for August 12, 2016

Temp ( °F °C ) Dew Point ( °F °C ) Humidity (%) Winds ( mph kmh ) Pressure ( in mb ) Visibility ( mi km ) Precip ( " mm )
12:53 am 00:53 Clear 85 29.4 27 -2.8 12 12 NW 5 7 29.92 1013 10 16.0934 0 0
1:53 am 01:53 Clear 83 28.3 31 -0.6 15 15 Calm 29.92 1013 10 16.0934 0 0
2:53 am 02:53 Clear 80 26.7 31 -0.6 17 17 NW 5 7 29.93 1013 10 16.0934 0 0
3:53 am 03:53 Clear 82 27.8 28 -2.2 14 14 Calm 29.93 1014 10 16.0934 0 0
4:53 am 04:53 Clear 79 26.1 30 -1.1 17 17 Calm 29.94 1014 10 16.0934 0 0
5:53 am 05:53 Clear 78 25.6 28 -2.2 16 16 NW 8 13 29.96 1014 10 16.0934 0 0
6:53 am 06:53 Sunny 82 27.8 24 -4.4 12 12 N 8 13 29.97 1015 10 16.0934 0 0
7:53 am 07:53 Sunny 83 28.3 29 -1.7 14 14 SSE 5 7 29.99 1016 10 16.0934 0 0
8:53 am 08:53 Sunny 88 31.1 27 -2.8 11 11 Calm 30 1016 10 16.0934 0 0
9:53 am 09:53 Sunny 92 33.3 32 0 12 12 VRB 3 6 30 1016 10 16.0934 0 0
10:53 am 10:53 Sunny 94 34.4 42 5.6 17 17 VRB 5 7 29.99 1016 10 16.0934 0 0
11:53 am 11:53 Sunny 96 35.6 40 4.4 14 14 ESE 8 13 29.98 1015 10 16.0934 0 0
12:53 pm 12:53 Sunny 99 37.2 31 -0.6 9 9 VRB 5 7 29.96 1014 10 16.0934 0 0
1:53 pm 13:53 Sunny 100 37.8 32 0 9 9 VRB 6 9 29.93 1014 10 16.0934 0 0
2:53 pm 14:53 Sunny 100 37.8 34 1.1 10 10 SE 6 9 29.91 1013 10 16.0934 0 0
3:53 pm 15:53 Sunny 102 38.9 32 0 9 9 NW 5 7 29.88 1012 10 16.0934 0 0
4:53 pm 16:53 Sunny 102 38.9 35 1.7 10 10 Calm 29.86 1011 10 16.0934 0 0
5:53 pm 17:53 Sunny 101 38.3 36 2.2 10 10 VRB 3 6 29.84 1010 10 16.0934 0 0
6:53 pm 18:53 Sunny 101 38.3 36 2.2 10 10 S 6 9 29.83 1010 10 16.0934 0 0
7:53 pm 19:53 Clear 99 37.2 38 3.3 12 12 S 5 7 29.85 1011 10 16.0934 0 0
8:53 pm 20:53 Clear 96 35.6 38 3.3 13 13 ESE 3 6 29.87 1011 10 16.0934 0 0
9:53 pm 21:53 Clear 95 35 41 5 15 15 Calm 29.88 1012 10 16.0934 0 0
10:53 pm 22:53 Clear 91 32.8 41 5 17 17 NW 7 11 29.88 1012 10 16.0934 0 0
11:53 pm 23:53 Clear 87 30.6 40 4.4 19 19 Calm 29.88 1012 10 16.0934 0 0

Powered by AerisWeather